Tianmu 1-14

operational
NORAD ID: 58648 Int'l Des: 2023-205 Owner: TIANMU Country: CN
LEOCIRCULARRETROGRADESSO

Tianmu 1-14について

説明を読み込み中...

リアルタイム位置

3D地球を読み込み中...

次回通過

高度履歴

Altitude vs Time

uPlot chart will show altitude changes over time

軌道要素

1 58648U 23205D 26061.63990929 .00007509 00000-0 29707-3 0 9994
2 58648 97.3498 84.1971 0008189 3.3076 356.8215 15.25712499121254
Epoch: Mar 2, 2026 • Age: 30 hours

現在のステータス

高度 496.4 km
速度 7.61 km/s
衛星直下点 12.45°N, 11.56°E
打ち上げ日 Dec 25, 2023
運用期間 2.1 years
タイプ other

技術仕様

分類 Payload
質量 50.00 kg
乾燥質量 50.00 kg
総質量 50.00 kg
長さ 1.50 m
直径 1.00 m
スパン 1.50 m
形状 Box
製造者 TIANMU
バスタイプ Tianmu
フェーズステータス In Orbit
所有者/国 TIANMU/CN

大規模コンステレーション

Loading constellations...